• In Uzbekistan
  • List of Countries
  • For 7 days
  • Water Temperature
  • Satellite Maps
  • Weather Map
  • Weather Widgets
  • user-avatar
    Login

    Hourly Weather Zulpich

    Today, 24 September, Sunday

    Time Temperature Precipitation Wind Pressure Humidity
    00:00 +12°C° 0 mm 1 mps 752 mmHg 91%
    01:00 +11°C° 0 mm 1 mps 752 mmHg 91%
    02:00 +10°C° 0 mm 0 mps 751 mmHg 92%
    03:00 +10°C° 0 mm 0 mps 751 mmHg 92%
    04:00 +10°C° 0 mm 0 mps 752 mmHg 92%
    05:00 +10°C° 0 mm 0 mps 752 mmHg 92%
    06:00 +10°C° 0 mm 0 mps 752 mmHg 92%
    07:00 +13°C° 0 mm 1 mps 752 mmHg 84%
    08:00 +15°C° 0 mm 1 mps 752 mmHg 77%
    09:00 +18°C° 0 mm 1 mps 752 mmHg 70%
    10:00 +19°C° 0 mm 1 mps 752 mmHg 66%
    11:00 +20°C° 0 mm 1 mps 752 mmHg 61%
    12:00 +22°C° 0 mm 1 mps 752 mmHg 57%
    13:00 +21°C° 0.1 mm 1 mps 751 mmHg 59%
    14:00 +20°C° 0.1 mm 2 mps 751 mmHg 62%
    15:00 +20°C° 0.1 mm 2 mps 751 mmHg 64%
    16:00 +18°C° 0 mm 2 mps 751 mmHg 70%
    17:00 +16°C° 0 mm 1 mps 751 mmHg 76%
    18:00 +15°C° 0 mm 1 mps 751 mmHg 82%
    19:00 +14°C° 0 mm 1 mps 751 mmHg 84%
    20:00 +14°C° 0 mm 1 mps 751 mmHg 86%
    21:00 +13°C° 0 mm 1 mps 751 mmHg 88%
    22:00 +13°C° 0 mm 1 mps 751 mmHg 89%
    23:00 +12°C° 0 mm 1 mps 751 mmHg 90%

    Tomorrow, 25 September, Monday

    Time Temperature Precipitation Wind Pressure Humidity
    00:00 +12°C° 0 mm 1 mps 751 mmHg 91%
    01:00 +12°C° 0 mm 1 mps 751 mmHg 91%
    02:00 +11°C° 0 mm 1 mps 750 mmHg 92%
    03:00 +11°C° 0 mm 1 mps 750 mmHg 92%
    04:00 +11°C° 0 mm 1 mps 750 mmHg 92%
    05:00 +11°C° 0 mm 1 mps 750 mmHg 92%
    06:00 +11°C° 0 mm 1 mps 750 mmHg 93%
    07:00 +13°C° 0 mm 1 mps 750 mmHg 85%
    08:00 +15°C° 0 mm 1 mps 750 mmHg 78%
    09:00 +18°C° 0 mm 1 mps 750 mmHg 70%
    10:00 +19°C° 0 mm 1 mps 750 mmHg 67%
    11:00 +20°C° 0 mm 1 mps 749 mmHg 63%
    12:00 +21°C° 0 mm 1 mps 749 mmHg 59%
    13:00 +21°C° 0.1 mm 1 mps 749 mmHg 61%
    14:00 +21°C° 0.1 mm 1 mps 749 mmHg 62%
    15:00 +21°C° 0.1 mm 1 mps 748 mmHg 63%
    16:00 +19°C° 0.1 mm 1 mps 748 mmHg 69%
    17:00 +18°C° 0.1 mm 1 mps 748 mmHg 75%
    18:00 +15°C° 0.1 mm 1 mps 749 mmHg 81%
    19:00 +15°C° 0 mm 1 mps 749 mmHg 83%
    20:00 +14°C° 0 mm 1 mps 749 mmHg 85%
    21:00 +14°C° 0 mm 1 mps 749 mmHg 87%
    22:00 +13°C° 0 mm 1 mps 749 mmHg 88%
    23:00 +13°C° 0 mm 1 mps 749 mmHg 89%

    Day after tomorrow, 26 September, Tuesday

    Time Temperature Precipitation Wind Pressure Humidity
    00:00 +13°C° 0 mm 1 mps 749 mmHg 91%
    01:00 +12°C° 0 mm 1 mps 749 mmHg 91%
    02:00 +12°C° 0 mm 1 mps 749 mmHg 92%
    03:00 +12°C° 0 mm 1 mps 749 mmHg 92%
    04:00 +12°C° 0 mm 1 mps 749 mmHg 92%
    05:00 +12°C° 0 mm 1 mps 749 mmHg 92%
    06:00 +11°C° 0 mm 1 mps 749 mmHg 93%
    07:00 +13°C° 0 mm 1 mps 750 mmHg 86%
    08:00 +15°C° 0 mm 1 mps 750 mmHg 80%
    09:00 +18°C° 0 mm 1 mps 750 mmHg 73%
    10:00 +19°C° 0.1 mm 1 mps 750 mmHg 70%
    11:00 +20°C° 0.1 mm 1 mps 750 mmHg 66%
    12:00 +21°C° 0.1 mm 1 mps 750 mmHg 63%
    13:00 +21°C° 0.2 mm 1 mps 750 mmHg 63%
    14:00 +21°C° 0.2 mm 1 mps 750 mmHg 64%
    15:00 +21°C° 0.2 mm 1 mps 750 mmHg 65%
    16:00 +19°C° 0.2 mm 1 mps 750 mmHg 71%
    17:00 +18°C° 0.2 mm 1 mps 751 mmHg 76%
    18:00 +16°C° 0.2 mm 1 mps 751 mmHg 81%
    19:00 +15°C° 0 mm 1 mps 751 mmHg 84%
    20:00 +14°C° 0 mm 1 mps 751 mmHg 86%
    21:00 +14°C° 0 mm 1 mps 752 mmHg 88%
    22:00 +14°C° 0 mm 1 mps 752 mmHg 89%
    23:00 +13°C° 0 mm 1 mps 752 mmHg 91%

    27 September, Wednesday

    Time Temperature Precipitation Wind Pressure Humidity
    00:00 +13°C° 0 mm 1 mps 752 mmHg 92%
    01:00 +13°C° 0 mm 1 mps 752 mmHg 92%
    02:00 +12°C° 0 mm 1 mps 752 mmHg 93%
    03:00 +12°C° 0 mm 1 mps 752 mmHg 93%
    04:00 +12°C° 0 mm 1 mps 752 mmHg 93%
    05:00 +12°C° 0 mm 1 mps 752 mmHg 94%
    06:00 +12°C° 0 mm 1 mps 753 mmHg 94%
    07:00 +14°C° 0 mm 1 mps 753 mmHg 88%
    08:00 +16°C° 0 mm 1 mps 753 mmHg 82%
    09:00 +19°C° 0 mm 1 mps 753 mmHg 76%
    10:00 +20°C° 0 mm 1 mps 753 mmHg 71%
    11:00 +21°C° 0 mm 1 mps 753 mmHg 66%
    12:00 +22°C° 0 mm 1 mps 753 mmHg 61%
    13:00 +22°C° 0 mm 1 mps 753 mmHg 61%
    14:00 +22°C° 0 mm 1 mps 753 mmHg 61%
    15:00 +22°C° 0 mm 1 mps 753 mmHg 61%
    16:00 +20°C° 0 mm 1 mps 753 mmHg 67%
    17:00 +19°C° 0 mm 1 mps 753 mmHg 74%
    18:00 +16°C° 0 mm 1 mps 753 mmHg 80%
    19:00 +16°C° 0 mm 1 mps 753 mmHg 82%
    20:00 +15°C° 0 mm 1 mps 753 mmHg 84%
    21:00 +15°C° 0 mm 2 mps 753 mmHg 86%
    22:00 +14°C° 0 mm 1 mps 753 mmHg 87%
    23:00 +14°C° 0 mm 1 mps 753 mmHg 87%

    28 September, Thursday

    Time Temperature Precipitation Wind Pressure Humidity
    00:00 +14°C° 0 mm 1 mps 753 mmHg 88%
    01:00 +14°C° 0 mm 1 mps 753 mmHg 87%
    02:00 +14°C° 0 mm 2 mps 753 mmHg 87%
    03:00 +14°C° 0 mm 2 mps 753 mmHg 86%
    04:00 +15°C° 0 mm 2 mps 753 mmHg 86%
    05:00 +15°C° 0 mm 2 mps 753 mmHg 85%
    06:00 +15°C° 0 mm 2 mps 754 mmHg 84%
    07:00 +16°C° 0 mm 2 mps 754 mmHg 81%
    08:00 +17°C° 0 mm 2 mps 754 mmHg 77%
    09:00 +18°C° 0 mm 2 mps 754 mmHg 74%
    10:00 +20°C° 0 mm 2 mps 754 mmHg 69%
    11:00 +21°C° 0 mm 2 mps 754 mmHg 64%
    12:00 +23°C° 0 mm 2 mps 754 mmHg 59%
    13:00 +23°C° 0 mm 2 mps 754 mmHg 59%
    14:00 +23°C° 0 mm 2 mps 754 mmHg 59%
    15:00 +23°C° 0 mm 2 mps 754 mmHg 59%
    16:00 +22°C° 0 mm 1 mps 754 mmHg 66%
    17:00 +20°C° 0 mm 1 mps 754 mmHg 72%
    18:00 +18°C° 0 mm 1 mps 754 mmHg 78%
    19:00 +18°C° 0 mm 1 mps 754 mmHg 80%
    20:00 +18°C° 0 mm 1 mps 755 mmHg 81%
    21:00 +16°C° 0 mm 1 mps 755 mmHg 83%
    22:00 +16°C° 0 mm 1 mps 755 mmHg 84%
    23:00 +15°C° 0 mm 1 mps 754 mmHg 85%

    29 September, Friday

    Time Temperature Precipitation Wind Pressure Humidity
    00:00 +15°C° 0 mm 1 mps 754 mmHg 86%
    01:00 +15°C° 0 mm 1 mps 754 mmHg 86%
    02:00 +14°C° 0 mm 1 mps 754 mmHg 86%
    03:00 +14°C° 0 mm 1 mps 754 mmHg 86%
    04:00 +14°C° 0 mm 2 mps 754 mmHg 86%
    05:00 +14°C° 0 mm 2 mps 754 mmHg 86%
    06:00 +14°C° 0 mm 2 mps 754 mmHg 86%
    07:00 +16°C° 0 mm 2 mps 754 mmHg 80%
    08:00 +18°C° 0 mm 2 mps 754 mmHg 73%
    09:00 +20°C° 0 mm 2 mps 753 mmHg 67%
    10:00 +21°C° 0 mm 2 mps 753 mmHg 63%
    11:00 +23°C° 0 mm 2 mps 753 mmHg 59%
    12:00 +24°C° 0 mm 3 mps 752 mmHg 55%
    13:00 +24°C° 0 mm 3 mps 752 mmHg 56%
    14:00 +24°C° 0 mm 3 mps 751 mmHg 57%
    15:00 +24°C° 0 mm 3 mps 751 mmHg 58%
    16:00 +22°C° 0 mm 3 mps 751 mmHg 65%
    17:00 +20°C° 0 mm 2 mps 751 mmHg 72%
    18:00 +18°C° 0 mm 2 mps 751 mmHg 79%
    19:00 +18°C° 0 mm 2 mps 750 mmHg 79%
    20:00 +18°C° 0 mm 2 mps 750 mmHg 80%
    21:00 +17°C° 0 mm 2 mps 750 mmHg 80%
    22:00 +17°C° 0 mm 2 mps 750 mmHg 79%
    23:00 +17°C° 0 mm 2 mps 749 mmHg 78%
    Show more